Location: *
(52.2090°N, 4.1550°W)
Time: 23:02:40
(UTC+00:00)

Cosmos 1500 Rocket - Pass Details

Date: 26 October 2019
Orbit: 604 x 631 km, 82.5° (Epoch: 12 November)

Event Time Altitude Azimuth Distance (km) Brightness Sun altitude
Rises 18:34:38 0° 358° (N) 2,937 7.1 -15.1°
Reaches altitude 10° 18:37:22 10° 14° (NNE) 2,021 6.0 -15.5°
Enters shadow 18:40:03 20° 50° (NE) 1,448 5.0 -15.9°
